Regional Weather Roundup
Issued by NWS

Home | Current Version | Previous Version | Graphics & Text | Print | Product List | Glossary On
Versions: 1 2 3 4 5 6 7 8 9 10 11 12 13 14 15 16 17 18 19 20 21 22 23 24 25 26 27 28 29 30 31 32 33 34 35 36 37 38 39 40 41 42 43 44 45 46 47 48 49 50
136
ASUS43 KDMX 211706
RWRIA

WEATHER ROUNDUP FOR IOWA
NATIONAL WEATHER SERVICE DES MOINES IA
1100 AM CST TUE FEB 21 2017

NOTE: "FAIR" INDICATES FEW OR NO CLOUDS BELOW 12,000 FEET WITH NO
SIGNIFICANT WEATHER AND/OR OBSTRUCTIONS TO VISIBILITY.

* - THESE STATIONS ARE NOT NWS STATIONS...THUS NOT UNDER NWS
QUALITY CONTROL.  THEY ALSO DO NOT REPORT WEATHER SUCH
AS PRECIPITATION OR FOG.

IAZ001>003-012>014-020>022-031>034-043>046-211800-
   NORTHWEST IOWA

CITY           SKY/WX    TMP DP  RH WIND       PRES   REMARKS
CARROLL *      SUNNY     55  48  76 SW14      29.94F
CHEROKEE *     SUNNY     55  44  66 SW15G21   29.91F
DENISON *      SUNNY     55  45  67 SW13G20   29.94S
LE MARS *      SUNNY     55  43  62 S21       29.88F
SHELDON *      SUNNY     54  46  76 S23G31    29.83F
SIOUX CITY     SUNNY     60  42  51 S13       29.91F
SPENCER        SUNNY     53  43  68 SW20      29.87F
STORM LAKE *   SUNNY     54  45  71 SW16      29.92F
$$

IAZ055>058-069>071-079>083-090>094-211800-
   SOUTHWEST IOWA

CITY           SKY/WX    TMP DP  RH WIND       PRES   REMARKS
ATLANTIC *     SUNNY     54  46  76 SW12      29.98F
CLARINDA *     SUNNY     54  48  82 S9          N/A
COUNCIL BLFS * SUNNY     54  46  76 SW13      29.98F
CRESTON *      SUNNY     54  48  82 SW6       30.00F
HARLAN  *      SUNNY     54  52  94 SW13      30.00F
LAMONI           N/A     57  43  59 CALM      29.99R
RED OAK *      SUNNY     55  46  71 SW10      30.00F
SHENANDOAH *   SUNNY     55  46  71 SW8       30.01F
$$

IAZ047>049-059>061-072>074-084-211800-
   CENTRAL IOWA

CITY           SKY/WX    TMP DP  RH WIND       PRES   REMARKS
AMES           SUNNY     51  48  89 SW8       29.97F
ANKENY *       SUNNY     54  45  71 VRB6      29.99S
BOONE *        SUNNY     52  46  82 SW9       29.96S
CHARITON *     SUNNY     57  45  62 CALM      29.98S
DES MOINES     MOSUNNY   56  45  66 S8        29.98F
GRINNELL*      SUNNY     53  44  72 S5        29.99S
KNOXVILLE *    SUNNY     55  45  67 CALM      29.97S
MARSHALLTOWN   SUNNY     50  47  89 SW5       29.97S
NEWTON *       SUNNY     50  46  87 W6        29.98R
PELLA *        SUNNY     54  44  68 SE3       30.00S
PERRY *          N/A     54  49  82 SW8       29.98S
$$

IAZ004>006-015-016-023>025-035-036-211800-
   NORTH CENTRAL IOWA

CITY           SKY/WX    TMP DP  RH WIND       PRES   REMARKS
ALGONA *       SUNNY     50  45  81 S14G20    29.92S
CLARION *      SUNNY     50  50 100 S12       29.95F
ESTHERVILLE    SUNNY     53  43  68 SW21G29   29.86F
FORT DODGE *   SUNNY     54  45  71 S14       29.95F
MASON CITY     SUNNY     49  44  83 SW13      29.95S
FOREST CITY *    N/A     50  50 100 SW9       29.92F
IOWA FALLS *     N/A     50  46  85 SW9       29.97S
$$

IAZ007>011-017>019-026>030-037>042-050>054-066-211800-
   NORTHEAST IOWA

CITY           SKY/WX    TMP DP  RH WIND       PRES   REMARKS
CEDAR RAPIDS   SUNNY     50  47  89 VRB3      29.96S
CHARLES CITY * SUNNY     45  45 100 S9        29.95S
CLINTON *      SUNNY     53  46  77 VRB3      29.97S
DECORAH *      FOG       41  41 100 CALM      29.94S VSB 1/2
DUBUQUE        SUNNY     52  43  71 CALM      29.95S
MONTICELLO *   SUNNY     50  43  76 CALM      29.95F
OELWEIN *      FOG       43  43 100 W6        29.97R VSB 1/4
WATERLOO       SUNNY     51  44  77 SW8       29.97R
$$

IAZ064-065-067-068-078-211800-
   EAST CENTRAL IOWA

CITY           SKY/WX    TMP DP  RH WIND       PRES   REMARKS
DAVENPORT      SUNNY     55  46  71 SE3       29.97S
IOWA CITY      SUNNY     55  45  68 VRB3      29.98F
MUSCATINE *    SUNNY     55  45  67 CALM      29.97F
QUAD CITIES    MOSUNNY   60  44  55 CALM      29.96F
$$

IAZ062-063-075>077-085>089-095>099-211800-
   SOUTHEAST IOWA

CITY           SKY/WX    TMP DP  RH WIND       PRES   REMARKS
BURLINGTON     MOSUNNY   57  46  66 NE7       29.97S
FAIRFIELD *    SUNNY     55  45  67 E3        29.98S
KEOKUK *       CLOUDY    57  52  82 NE5       29.96F
OTTUMWA        SUNNY     56  44  64 E5        29.98F
WASHINGTON *   SUNNY     55  46  71 CALM      29.99S
$$

ABBREVIATIONS USED IN REMARKS
   TC - TEMPERATURES IN CELSIUS
  WCI - WIND CHILL INDEX
   HX - HEAT INDEX
  VSB - VISIBILITY
$$





USA.gov is the U.S. government's official web portal to all federal, state and local government web resources and services.